• In Latvia
  • List of Countries
  • For 7 days
  • Water Temperature
  • Satellite Maps
  • Weather Map
  • Weather Widgets
  • user-avatar
    Login

    Hourly Weather Macerata

    Today, 18 July, Wednesday

    Time Temperature Precipitation Wind Pressure Humidity
    00:00 +20°C° 0 mm 2 mps 734 mmHg 73%
    01:00 +20°C° 0 mm 2 mps 734 mmHg 70%
    02:00 +20°C° 0 mm 2 mps 734 mmHg 67%
    03:00 +20°C° 0 mm 2 mps 734 mmHg 63%
    04:00 +20°C° 0 mm 2 mps 734 mmHg 60%
    05:00 +21°C° 0 mm 2 mps 735 mmHg 57%
    06:00 +23°C° 0 mm 2 mps 735 mmHg 55%
    07:00 +25°C° 0 mm 2 mps 735 mmHg 50%
    08:00 +27°C° 0 mm 2 mps 735 mmHg 44%
    09:00 +29°C° 0 mm 1 mps 736 mmHg 38%
    10:00 +31°C° 0 mm 1 mps 736 mmHg 33%
    11:00 +32°C° 0 mm 1 mps 736 mmHg 31%
    12:00 +32°C° 0 mm 1 mps 736 mmHg 30%
    13:00 +32°C° 0 mm 2 mps 736 mmHg 31%
    14:00 +32°C° 0 mm 2 mps 736 mmHg 33%
    15:00 +32°C° 0 mm 2 mps 736 mmHg 35%
    16:00 +32°C° 0 mm 2 mps 735 mmHg 37%
    17:00 +30°C° 0 mm 2 mps 735 mmHg 42%
    18:00 +29°C° 0 mm 2 mps 735 mmHg 47%
    19:00 +28°C° 0 mm 1 mps 735 mmHg 51%
    20:00 +26°C° 0 mm 1 mps 735 mmHg 52%
    21:00 +25°C° 0 mm 2 mps 735 mmHg 53%
    22:00 +24°C° 0 mm 2 mps 735 mmHg 54%
    23:00 +24°C° 0 mm 2 mps 735 mmHg 56%

    Tomorrow, 19 July, Thursday

    Time Temperature Precipitation Wind Pressure Humidity
    00:00 +23°C° 0 mm 2 mps 735 mmHg 57%
    01:00 +23°C° 0 mm 2 mps 735 mmHg 58%
    02:00 +23°C° 0 mm 2 mps 735 mmHg 59%
    03:00 +21°C° 0 mm 2 mps 735 mmHg 60%
    04:00 +21°C° 0 mm 2 mps 735 mmHg 62%
    05:00 +23°C° 0 mm 2 mps 735 mmHg 60%
    06:00 +24°C° 0 mm 1 mps 735 mmHg 57%
    07:00 +26°C° 0 mm 1 mps 735 mmHg 55%
    08:00 +28°C° 0 mm 1 mps 735 mmHg 48%
    09:00 +29°C° 0 mm 1 mps 735 mmHg 41%
    10:00 +31°C° 0 mm 1 mps 735 mmHg 34%
    11:00 +32°C° 0 mm 2 mps 735 mmHg 33%
    12:00 +34°C° 0 mm 2 mps 735 mmHg 33%
    13:00 +34°C° 0 mm 2 mps 735 mmHg 32%
    14:00 +34°C° 0 mm 3 mps 735 mmHg 34%
    15:00 +34°C° 0 mm 3 mps 735 mmHg 36%
    16:00 +33°C° 0 mm 3 mps 735 mmHg 39%
    17:00 +31°C° 0 mm 2 mps 735 mmHg 45%
    18:00 +29°C° 0 mm 2 mps 734 mmHg 51%
    19:00 +27°C° 0 mm 1 mps 734 mmHg 57%
    20:00 +26°C° 0 mm 1 mps 735 mmHg 60%
    21:00 +25°C° 0 mm 1 mps 735 mmHg 62%
    22:00 +24°C° 0 mm 1 mps 735 mmHg 65%
    23:00 +23°C° 0 mm 1 mps 735 mmHg 64%

    Day after tomorrow, 20 July, Friday

    Time Temperature Precipitation Wind Pressure Humidity
    00:00 +23°C° 0 mm 1 mps 735 mmHg 64%
    01:00 +23°C° 0 mm 1 mps 735 mmHg 64%
    02:00 +22°C° 0 mm 1 mps 735 mmHg 64%
    03:00 +22°C° 0 mm 1 mps 735 mmHg 64%
    04:00 +22°C° 0 mm 1 mps 735 mmHg 64%
    05:00 +23°C° 0 mm 1 mps 735 mmHg 61%
    06:00 +25°C° 0 mm 1 mps 735 mmHg 58%
    07:00 +26°C° 0 mm 1 mps 735 mmHg 55%
    08:00 +28°C° 0 mm 1 mps 735 mmHg 49%
    09:00 +30°C° 0 mm 1 mps 735 mmHg 44%
    10:00 +31°C° 0 mm 1 mps 736 mmHg 38%
    11:00 +32°C° 0 mm 2 mps 735 mmHg 36%
    12:00 +34°C° 0 mm 2 mps 735 mmHg 35%
    13:00 +35°C° 0 mm 3 mps 735 mmHg 33%
    14:00 +35°C° 0 mm 3 mps 735 mmHg 34%
    15:00 +35°C° 0 mm 3 mps 735 mmHg 35%
    16:00 +34°C° 0 mm 4 mps 735 mmHg 36%
    17:00 +33°C° 0 mm 3 mps 734 mmHg 42%
    18:00 +30°C° 0 mm 3 mps 734 mmHg 49%
    19:00 +29°C° 0 mm 3 mps 734 mmHg 55%
    20:00 +27°C° 0 mm 3 mps 734 mmHg 57%
    21:00 +26°C° 0 mm 3 mps 735 mmHg 59%
    22:00 +25°C° 0 mm 3 mps 735 mmHg 61%
    23:00 +24°C° 0 mm 3 mps 735 mmHg 61%

    21 July, Saturday

    Time Temperature Precipitation Wind Pressure Humidity
    00:00 +24°C° 0 mm 3 mps 734 mmHg 62%
    01:00 +22°C° 0 mm 3 mps 734 mmHg 62%
    02:00 +22°C° 0 mm 3 mps 734 mmHg 62%
    03:00 +23°C° 0 mm 2 mps 734 mmHg 62%
    04:00 +21°C° 0 mm 2 mps 734 mmHg 62%
    05:00 +24°C° 0 mm 2 mps 734 mmHg 60%
    06:00 +25°C° 0 mm 2 mps 734 mmHg 57%
    07:00 +26°C° 0 mm 2 mps 734 mmHg 54%
    08:00 +28°C° 0 mm 2 mps 734 mmHg 47%
    09:00 +30°C° 0 mm 2 mps 734 mmHg 41%
    10:00 +34°C° 0 mm 2 mps 734 mmHg 34%
    11:00 +34°C° 0 mm 3 mps 734 mmHg 33%
    12:00 +35°C° 0 mm 3 mps 734 mmHg 32%
    13:00 +36°C° 0 mm 4 mps 734 mmHg 31%
    14:00 +35°C° 0 mm 4 mps 734 mmHg 34%
    15:00 +35°C° 0 mm 5 mps 734 mmHg 38%
    16:00 +34°C° 0 mm 5 mps 733 mmHg 41%
    17:00 +32°C° 0 mm 4 mps 733 mmHg 45%
    18:00 +30°C° 0 mm 4 mps 733 mmHg 49%
    19:00 +29°C° 0 mm 3 mps 733 mmHg 54%
    20:00 +27°C° 0 mm 3 mps 733 mmHg 57%
    21:00 +26°C° 0 mm 3 mps 733 mmHg 60%
    22:00 +24°C° 0 mm 3 mps 733 mmHg 64%
    23:00 +24°C° 0 mm 3 mps 733 mmHg 63%

    22 July, Sunday

    Time Temperature Precipitation Wind Pressure Humidity
    00:00 +24°C° 0 mm 2 mps 733 mmHg 62%
    01:00 +23°C° 0 mm 2 mps 732 mmHg 62%
    02:00 +23°C° 0 mm 2 mps 732 mmHg 61%
    03:00 +23°C° 0 mm 2 mps 732 mmHg 60%
    04:00 +21°C° 0 mm 2 mps 731 mmHg 58%
    05:00 +24°C° 0 mm 2 mps 731 mmHg 56%
    06:00 +25°C° 0 mm 1 mps 731 mmHg 54%
    07:00 +26°C° 0 mm 1 mps 731 mmHg 52%
    08:00 +28°C° 0 mm 1 mps 731 mmHg 48%
    09:00 +29°C° 0 mm 2 mps 731 mmHg 45%
    10:00 +31°C° 0 mm 2 mps 731 mmHg 42%
    11:00 +31°C° 0.1 mm 2 mps 731 mmHg 42%
    12:00 +31°C° 0.1 mm 3 mps 731 mmHg 42%
    13:00 +33°C° 0.1 mm 4 mps 730 mmHg 42%
    14:00 +30°C° 1.6 mm 3 mps 730 mmHg 51%
    15:00 +28°C° 1.6 mm 3 mps 730 mmHg 60%
    16:00 +27°C° 1.6 mm 2 mps 730 mmHg 69%
    17:00 +26°C° 2.3 mm 3 mps 730 mmHg 74%
    18:00 +25°C° 2.3 mm 3 mps 729 mmHg 78%
    19:00 +22°C° 2.3 mm 4 mps 729 mmHg 83%
    20:00 +22°C° 2 mm 3 mps 730 mmHg 83%
    21:00 +21°C° 2 mm 3 mps 730 mmHg 84%
    22:00 +21°C° 2 mm 2 mps 731 mmHg 84%
    23:00 +20°C° 0.3 mm 3 mps 730 mmHg 84%

    23 July, Monday

    Time Temperature Precipitation Wind Pressure Humidity
    00:00 +20°C° 0.3 mm 4 mps 730 mmHg 85%
    01:00 +20°C° 0.3 mm 4 mps 730 mmHg 85%
    02:00 +20°C° 0.1 mm 4 mps 730 mmHg 86%
    03:00 +19°C° 0.1 mm 5 mps 730 mmHg 86%
    04:00 +19°C° 0.1 mm 5 mps 730 mmHg 86%
    05:00 +20°C° 0.4 mm 5 mps 731 mmHg 85%
    06:00 +21°C° 0.4 mm 5 mps 731 mmHg 83%
    07:00 +22°C° 0.4 mm 5 mps 731 mmHg 81%
    08:00 +23°C° 0.8 mm 5 mps 732 mmHg 76%
    09:00 +24°C° 0.8 mm 6 mps 732 mmHg 71%
    10:00 +26°C° 0.8 mm 6 mps 732 mmHg 66%
    11:00 +27°C° 0.2 mm 6 mps 732 mmHg 62%
    12:00 +28°C° 0.2 mm 7 mps 732 mmHg 58%
    13:00 +28°C° 0.2 mm 7 mps 732 mmHg 54%
    14:00 +28°C° 0 mm 7 mps 732 mmHg 52%
    15:00 +28°C° 0 mm 6 mps 732 mmHg 51%
    16:00 +28°C° 0 mm 6 mps 732 mmHg 50%
    17:00 +27°C° 0 mm 5 mps 732 mmHg 53%
    18:00 +26°C° 0 mm 4 mps 732 mmHg 57%
    19:00 +25°C° 0 mm 4 mps 733 mmHg 61%
    20:00 +24°C° 0 mm 3 mps 733 mmHg 62%
    21:00 +22°C° 0 mm 3 mps 733 mmHg 63%
    22:00 +21°C° 0 mm 3 mps 733 mmHg 65%
    23:00 +21°C° 0 mm 3 mps 733 mmHg 66%
    Show more